Your browser is no longer supported. Please, upgrade your browser.
Filter
Ticker Owner Relationship Date Transaction Cost #Shares Value ($) #Shares Total SEC Form 4
GOGOTOWNSEND CHARLES CDirectorAug 22Buy4.006,96027,8351,219,918Aug 23 10:10 AM
GOGOTOWNSEND CHARLES CDirectorAug 21Buy3.9358,691230,6441,212,958Aug 23 10:10 AM
SFBSKattos Andrew NEVP, Regional CEOAug 22Buy30.7583425,646121,834Aug 23 10:06 AM
CNBKAEVANGELISTA PAUL AExecutive Vice PresidentAug 23Buy141.020582,084Aug 23 09:58 AM
CNBKASLOANE BARRY RCEO and PresidentAug 23Buy141.021871,644Aug 23 09:57 AM
OLNAlderman Heidi SDirectorAug 21Buy16.692,00033,3742,000Aug 23 09:53 AM
HCAPJolson Joseph AChief Executive OfficerAug 21Buy9.792,13420,892688,733Aug 23 09:20 AM
ASTEMerwe Jaco van derGroup President-InfrastructureAug 22Buy28.002,00056,0006,579Aug 23 09:15 AM
NCZCogan Sarah EDirectorAug 21Buy5.052,00010,0972,000Aug 23 07:49 AM
NCVCogan Sarah EDirectorAug 21Buy5.701,80010,2591,800Aug 23 07:47 AM
CDXSNICOLS JOHN JPresident and CEOAug 20Buy13.3010,000133,0001,082,679Aug 22 09:32 PM
CDXSNICOLS JOHN JPresident and CEOAug 20Buy13.3010,000133,0001,082,679Aug 22 09:32 PM
HZNKENNEDY JOHN CDirectorAug 22Buy3.999,68538,643449,258Aug 22 09:14 PM
HZNKENNEDY JOHN CDirectorAug 21Buy3.9140,114156,846439,573Aug 22 09:14 PM
HZNKENNEDY JOHN CDirectorAug 20Buy3.7811,80044,604399,459Aug 22 09:14 PM
HZNWilson Harry JamesDirectorAug 21Buy3.9131,280122,305387,190Aug 22 08:29 PM
HZNWilson Harry JamesDirectorAug 20Buy3.7115,24756,566355,910Aug 22 08:29 PM
HZNHenderson Frederick A.DirectorAug 20Buy3.8115,00057,15084,199Aug 22 08:23 PM
PEIXKOEHLER NEIL MPresident & CEOAug 22Buy0.57100,00057,000932,985Aug 22 07:41 PM
BXBlackstone Group Inc10% OwnerAug 22Buy7.99119,339953,51916,086,383Aug 22 07:21 PM
BXBlackstone Group Inc10% OwnerAug 21Buy7.8076,432596,17015,967,044Aug 22 07:21 PM
BXBlackstone Group Inc10% OwnerAug 20Buy7.56134,1181,013,93215,890,612Aug 22 07:21 PM
TSCDemas David JChief Financial OfficerAug 21Buy19.451,00019,4508,000Aug 22 06:48 PM
VTVTPERELMAN RONALD O10% OwnerAug 22Buy1.3850,00069,00021,688,714Aug 22 06:37 PM
IPIJornayvaz Robert P IIIExec. Chair, President & CEOAug 22Buy3.052,2967,00318,304,236Aug 22 06:15 PM
GRA40 North Latitude Fund LP10% OwnerAug 22Buy64.6250,0003,230,8859,836,521Aug 22 06:01 PM
GRA40 North Latitude Fund LP10% OwnerAug 21Buy64.8718,1081,174,6089,786,521Aug 22 06:01 PM
GRA40 North Latitude Fund LP10% OwnerAug 20Buy64.5938,5002,486,8779,768,413Aug 22 06:01 PM
CLROBAGLEY EDWARD D10% OwnerAug 20Buy2.209001,9807,398,239Aug 22 05:57 PM
PRFTDerrickson Ralph CDirectorAug 20Buy36.2868924,99737,940Aug 22 05:35 PM
KINSGOLDSTEIN BARRYPresident, COB and CEOAug 22Buy8.154,00032,60012,000Aug 22 05:15 PM
KINSGOLDSTEIN BARRYPresident, COB and CEOAug 22Buy8.171,95015,932613,876Aug 22 05:15 PM
SBHRABIN EDWARD WDirectorAug 21Buy12.265006,13089,000Aug 22 05:05 PM
BWRILEY BRYANT RDirectorAug 21Buy3.7029,700109,777134,424Aug 22 05:01 PM
BWRILEY BRYANT RDirectorAug 20Buy3.7020,30075,108104,724Aug 22 05:01 PM
RRDChatham Asset Management, LLC10% OwnerAug 21Buy2.07439,000907,9407,883,657Aug 22 04:50 PM
RRDChatham Asset Management, LLC10% OwnerAug 20Buy1.97337,000664,0597,444,657Aug 22 04:50 PM
CFGKOCH CHARLES JOHNDirectorAug 20Buy32.4515,000486,75068,781Aug 22 04:50 PM
MOSBEEBE CHERYL KDirectorAug 21Buy19.2112,998249,69223,704Aug 22 04:43 PM
RIBTCONTINENTAL GRAIN CO10% OwnerAug 21Buy2.701,5304,1317,303,652Aug 22 04:35 PM
RIBTCONTINENTAL GRAIN CO10% OwnerAug 20Buy2.645,17613,6557,302,122Aug 22 04:35 PM
DPWAult & Company, Inc.See RemarkAug 21Buy3.151,0003,1504,278Aug 22 04:35 PM
UFILANGONE KENNETH GDirectorAug 21Buy19.7210,000197,2001,230,000Aug 22 04:33 PM
AIKonzmann Richard ErnstEVP, CFO and TreasurerAug 21Buy5.302,50013,25041,362Aug 22 04:30 PM
INTTPELRIN JAMESPresident & CEOAug 21Buy4.322,3009,932117,448Aug 22 04:15 PM
UIHCHogan MichaelDirectorAug 20Buy12.861,00012,86084,688Aug 22 04:11 PM
TWOHammond KarenDirectorAug 22Buy13.305,60074,47647,262Aug 22 04:05 PM
HCIWatts SusanDirectorAug 20Buy42.2847420,041714Aug 22 04:03 PM
ADOMMenerey Michael K.Chief Financial OfficerAug 22Buy0.0810,000800434,114Aug 22 03:46 PM
UMHHIRSCH MATTHEW IDirectorAug 21Buy12.431,20715,00321,721Aug 22 03:07 PM
SYBTTASMAN NORMANDirectorAug 21Buy36.131114,02567,388Aug 22 02:57 PM
SYBTSchutte JohnDirectorAug 21Buy36.13863,1251,397Aug 22 02:56 PM
SYBTPriebe Stephen MDirectorAug 21Buy36.13863,12516,052Aug 22 02:55 PM
SYBTHerde Carl GDirectorAug 21Buy36.13431,56323,495Aug 22 02:53 PM
SYBTHeitzman Donna LDirectorAug 21Buy36.131114,0254,640Aug 22 02:52 PM
SYBTBrown J McCauleyDirectorAug 21Buy36.13431,5632,416Aug 22 02:51 PM
SYBTBickel Paul J IIIDirectorAug 21Buy36.131114,0252,712Aug 22 02:50 PM
OVLYLeonard Daniel JDirectorAug 08Buy18.413776,94151,989Aug 22 02:45 PM
IPIClearway Capital Management Lt10% OwnerAug 22Buy3.0250,000151,14017,119,822Aug 22 02:40 PM
LIVEIsaac JonCEO and PresidentAug 21Buy6.083,10418,8721,532,353Aug 22 02:16 PM
CLFBALDWIN JOHN TDirectorAug 22Buy8.277,00057,890114,727Aug 22 01:50 PM
PRMWCates Susan E.DirectorAug 21Buy12.235,00061,15028,968Aug 22 01:25 PM
GAIASutherland Paul HowardDirectorAug 22Buy7.482,50018,70091,557Aug 22 12:45 PM
TPBFrushone Ashley DavisDirectorAug 21Buy37.712639,918263Aug 22 12:19 PM
TPLHORIZON KINETICS ASSET MANAGEM10% OwnerAug 21Buy669.374932,799300,626Aug 22 11:26 AM
CLFKoci KeithEVP, Chief Financial OfficerAug 22Buy8.0812,500100,99986,849Aug 22 11:24 AM
CUIONEIL JAMES FDirectorAug 21Buy0.7920,00015,836330,331Aug 22 11:23 AM
CNOBBoswell Stephen T.DirectorAug 20Buy20.4710,500214,956309,468Aug 22 11:07 AM
CZNCSINGER AARON KDirectorAug 21Buy23.883508,3582,066Aug 22 10:18 AM
JCSFandrich MarkVP/CFOAug 20Buy4.262501,0646,253Aug 22 10:14 AM
CPSLee Song MinSr VP & Pres., Asia PacificAug 21Buy33.273,00099,81016,784Aug 22 10:02 AM
TURNWolfe Daniel BPresidentAug 21Buy2.196701,467265,170Aug 22 09:04 AM
RRTSELLIOTT INTERNATIONAL, L.P.10% OwnerAug 21Buy8.879748,63923,184,247Aug 22 08:35 AM
RRTSELLIOTT INTERNATIONAL, L.P.10% OwnerAug 20Buy8.557326,25923,183,273Aug 22 08:35 AM
SCYXTaglietti MarcoChief Executive OfficerAug 21Buy1.119,50010,545526,015Aug 22 08:22 AM
SCYXTaglietti MarcoChief Executive OfficerAug 20Buy1.11500555516,515Aug 22 08:22 AM
ADESAlta Fundamental Advisers LLCDirectorAug 20Buy12.0415,700188,9511,433,470Aug 21 07:01 PM
ADESAlta Fundamental Advisers LLCDirectorAug 19Buy11.8840,543481,5091,417,770Aug 21 07:01 PM
RUNTIGER GLOBAL MANAGEMENT LLC10% OwnerAug 21Buy15.83250,0003,958,50014,208,079Aug 21 06:47 PM
RUNTIGER GLOBAL MANAGEMENT LLC10% OwnerAug 20Buy15.82153,2192,423,15813,958,079Aug 21 06:47 PM
RUNTIGER GLOBAL MANAGEMENT LLC10% OwnerAug 19Buy15.71236,7813,720,30313,804,860Aug 21 06:47 PM
QRHCMiller Ronald L. Jr.DirectorAug 19Buy2.65300795675Aug 21 06:32 PM
BTNFundamental Global Investors, DirectorAug 21Buy3.396,81523,0801,449,016Aug 21 06:26 PM
BTNFundamental Global Investors, DirectorAug 20Buy3.448,01727,5401,445,608Aug 21 06:26 PM
BTNFundamental Global Investors, DirectorAug 19Buy3.279,02729,4731,441,600Aug 21 06:26 PM
BXBlackstone Group Inc10% OwnerAug 21Buy8.37100,000837,000793,708Aug 21 06:22 PM
BXBlackstone Group Inc10% OwnerAug 20Buy8.14100,000814,000693,708Aug 21 06:22 PM
BXBlackstone Group Inc10% OwnerAug 19Buy8.1482,500671,550593,708Aug 21 06:22 PM
MACO HERN THOMAS EChief Executive OfficerAug 21Buy28.025,000140,08178,621Aug 21 06:11 PM
BVSNESW Capital, LLC10% OwnerAug 20Buy1.38210290982,365Aug 21 06:09 PM
BVSNESW Capital, LLC10% OwnerAug 19Buy1.371,0251,405982,155Aug 21 06:09 PM
NWHMHEESCHEN PAUL CDirectorAug 20Buy3.854,00015,40094,326Aug 21 05:24 PM
WYYKang JinCEOAug 21Buy0.37100,00037,4803,411,385Aug 21 05:12 PM
SBFGMARTIN WILLIAM GDirectorAug 15Buy16.085008,0406,282Aug 21 05:10 PM
OSBCCOLLINS GARY SVice ChairmanAug 21Buy12.484265,317888Aug 21 05:09 PM
STKLDuchscher RobertChief Information OfficerAug 19Buy2.2319,31043,10266,245Aug 21 05:07 PM
AQMSGibson Gayle JDirectorAug 21Buy1.752,5004,37132,546Aug 21 05:02 PM
SKTHENRY DAVIDDirectorAug 21Buy14.4110,000144,09034,400Aug 21 05:01 PM
MGPIGriffin Augustus C.President and CEOAug 20Buy47.752,500119,375118,630Aug 21 04:56 PM
TTSJACULLO PETER J IIIDirectorAug 20Buy2.3010,01423,0321,304,438Aug 21 04:47 PM
TTSJACULLO PETER J IIIDirectorAug 19Buy2.3225,00058,0001,294,424Aug 21 04:47 PM
SBHAlt Aaron ESVP, CFO & President-SBSAug 21Buy12.271,00012,26886,343Aug 21 04:39 PM
SBHRABIN EDWARD WDirectorAug 20Buy11.973,00035,91888,500Aug 21 04:36 PM
SBHEISENBERG MARSHALL EDirectorAug 20Buy11.8910,000118,86810,000Aug 21 04:35 PM
SGRYCOWHEY THOMAS F.Chief Financial OfficerAug 19Buy6.0025,000150,00071,928Aug 21 04:27 PM
SGRYEvans Jason EricEVP & Chief Operating OfficerAug 20Buy5.9525,000148,750111,655Aug 21 04:26 PM
EATBaltes Kelly C.EVP, President of Maggiano'sAug 20Buy38.001,60060,80015,584Aug 21 04:24 PM
WYYTodaro Richard LDirectorAug 21Buy0.34100,00034,470139,762Aug 21 04:18 PM
ACLSLawson Douglas A.EVP, Corporate Mktg & StrategyAug 21Buy15.053,00045,14467,033Aug 21 04:17 PM
CHMAMinick ScottDirectorAug 20Buy5.335,51829,41187,194Aug 21 04:16 PM
CHMAMinick ScottDirectorAug 19Buy5.024,30021,58681,676Aug 21 04:16 PM
OCNBusquet Jacques JDirectorAug 21Buy1.7310,00017,300179,217Aug 21 04:15 PM
BHVNBailey GregoryDirectorAug 20Buy37.655,000188,2502,587,601Aug 21 04:11 PM
EHTHWOLF DALE BDirectorAug 20Buy106.201,000106,2003,533Aug 21 04:11 PM
EHTHWOLF DALE BDirectorAug 19Buy103.901,000103,8952,533Aug 21 04:11 PM
RSTLOGUE GEORGE ADirectorAug 19Buy18.295009,1452,600Aug 21 04:07 PM
NICKRoyal Jeffrey CDirectorAug 16Buy8.433963,3387,120Aug 21 03:40 PM
FORRBRADFORD NEILDirectorAug 20Buy32.633,04099,1828,809Aug 21 03:34 PM
VSTOLOPEZ MIGUEL ASVP & CFOAug 20Buy4.8110,00048,10070,465Aug 21 03:24 PM
MMLPTAUSCHER RANDALLExecutive Vice President/COOAug 19Buy4.256632,81973,034Aug 21 03:05 PM
MMLPShoup Scot ASenior VP OperationsAug 19Buy4.255724210,057Aug 21 02:52 PM
MMLPMARTIN RUBEN SPresident and CEOAug 19Buy4.2588374330,363Aug 21 02:51 PM
MMLPBOOTH CHRIS HVP/General Counsel/SecretaryAug 19Buy4.25135525,816Aug 21 02:51 PM
MMLPBONDURANT ROBERT DExecutive VP and CFOAug 19Buy4.251,1955,07980,269Aug 21 02:51 PM
CMTSmith Andrew ODirectorAug 20Buy6.001,4148,48430,652Aug 21 02:22 PM
CMTSmith Andrew ODirectorAug 19Buy6.001,5869,51629,238Aug 21 02:22 PM
ADOMKanning Kevin G.VP IR & Business DevelopmentAug 21Buy0.115,0005253,950,000Aug 21 01:23 PM
MMPJoung ChansooDirectorAug 20Buy67.285,000336,4145,000Aug 21 12:15 PM
ENTSteger RonaldDirectorAug 19Buy0.6650,00033,000309,379Aug 21 11:26 AM
TPLHORIZON KINETICS ASSET MANAGEM10% OwnerAug 20Buy666.504932,659300,577Aug 21 10:59 AM
GOGOMUNDHEIM ROBERT HDirectorAug 19Buy4.005,00020,000119,244Aug 21 10:55 AM
CBBYudkovitz MartinDirectorAug 20Buy5.005,00025,00037,498Aug 21 10:27 AM
MSONKlugewicz Sharon WCOOAug 20Buy20.7850010,389590Aug 21 10:20 AM
TIPTBarnes Michael GeneExecutive ChairmanAug 20Buy6.752,44616,5038,002,318Aug 21 10:07 AM
TIPTBarnes Michael GeneExecutive ChairmanAug 19Buy6.702,11914,1897,999,872Aug 21 10:07 AM
OTTWHepner Craig MPresident & CEOAug 20Buy12.581001,258341Aug 21 09:58 AM
TURNWolfe Daniel BPresidentAug 20Buy2.202,0004,403264,500Aug 21 09:15 AM
TURNGift Alicia MTreasurer, SecretaryAug 20Buy2.172,3004,99141,449Aug 21 09:06 AM
YORWMcGlaughlin Erin CDirectorAug 20Buy38.16261,0001,213Aug 21 08:37 AM
YORWRasmussen Steven RDirectorAug 20Buy38.16166002,138Aug 21 08:30 AM
HSCMcKenzie Tracey L.SVP and CHROAug 20Buy18.992,00037,98030,949Aug 21 07:47 AM
SUMRD An EvelynDirectorAug 20Buy0.514,9002,49938,549Aug 21 07:44 AM
CLVSBLAIR JAMES CDirectorAug 20Buy5.9720,000119,40020,000Aug 20 09:49 PM
CLVSBLAIR JAMES CDirectorAug 16Buy5.7020,000114,00033,439Aug 20 09:49 PM
CALXDENUCCIO KEVIN ADirectorAug 16Buy5.7413,90079,83910,000Aug 20 09:21 PM
CALXDENUCCIO KEVIN ADirectorAug 16Buy5.7910,10058,445289,403Aug 20 09:21 PM
CPSTJORDEN YONDirectorAug 20Buy0.705,0003,483217,617Aug 20 08:40 PM
GDENMarnell Anthony A. IIIDirectorAug 20Buy13.754,10056,37538,679Aug 20 08:36 PM
GDENMarnell Anthony A. IIIDirectorAug 16Buy12.875,90075,93334,579Aug 20 08:36 PM
AERIForesite Capital Management II10% OwnerAug 20Buy23.2150,0001,160,5002,204,324Aug 20 08:27 PM
AERIForesite Capital Management II10% OwnerAug 19Buy23.343,84789,7892,154,324Aug 20 08:27 PM
AERIForesite Capital Management II10% OwnerAug 16Buy24.23100,0002,423,0002,150,477Aug 20 08:27 PM
PGTIBoydston BrentSR. VP CORP SALES & MKTG.Aug 20Buy14.002,00028,00025,176Aug 20 08:13 PM
PGTIKeller Robert AndrewPRES., SOUTHEAST BUS. UNITAug 20Buy14.153,50049,52529,328Aug 20 08:03 PM
RIBTCONTINENTAL GRAIN CO10% OwnerAug 19Buy2.5913,70035,4517,296,946Aug 20 07:54 PM
RIBTCONTINENTAL GRAIN CO10% OwnerAug 16Buy2.492004987,283,246Aug 20 07:54 PM
CERCARMISTICE CAPITAL, LLCDirectorAug 19Buy3.602,2988,28018,441,469Aug 20 07:04 PM
CERCARMISTICE CAPITAL, LLCDirectorAug 16Buy3.439,88633,90918,439,171Aug 20 07:04 PM
OCNBusquet Jacques JDirectorAug 19Buy1.5220,00030,400169,217Aug 20 06:40 PM
QBAKBRONSON STEVEN NCOB, CEO, PresidentAug 20Buy4.512,95513,327606,500Aug 20 06:24 PM
QBAKBRONSON STEVEN NCOB, CEO, PresidentAug 19Buy4.552,52011,459603,545Aug 20 06:24 PM
QBAKBRONSON STEVEN NCOB, CEO, PresidentAug 16Buy4.481,0254,594601,025Aug 20 06:24 PM
CZWIBianchi Stephen MCEO and PresidentAug 20Buy10.964004,38433,730Aug 20 06:15 PM
RIBTMitchell Todd TCFO and EVPAug 16Buy2.685,00013,4035,000Aug 20 06:13 PM
NGLCOLLINGSWORTH JAMES MDirectorAug 19Buy13.256,25082,8098,500Aug 20 06:05 PM
INFUSansone Christopher R.DirectorAug 16Buy4.9616,30080,7841,429,847Aug 20 05:58 PM
IPIWyatt EricaChief Human Resources OfficerAug 19Buy3.16100316131,268Aug 20 05:56 PM
RIBTGendason Ari DavidDirectorAug 19Buy2.625001,310128,867Aug 20 05:51 PM
NICKPeterson Adam K10% OwnerAug 20Buy9.004,17737,5931,886,866Aug 20 05:46 PM
NICKPeterson Adam K10% OwnerAug 19Buy8.7242,665372,0391,882,689Aug 20 05:46 PM
NICKPeterson Adam K10% OwnerAug 16Buy8.4329,980252,7311,840,024Aug 20 05:46 PM
ENZHARBERT MANAGEMENT CORP10% OwnerAug 20Buy3.119,70030,1675,620,681Aug 20 05:44 PM
ENZHARBERT MANAGEMENT CORP10% OwnerAug 16Buy3.0622,80069,7685,610,981Aug 20 05:44 PM
SRPTBarry RichardDirectorAug 20Buy99.325,000496,5933,182,065Aug 20 05:43 PM
RIBTRystrom Brent RobertCEO and PresidentAug 16Buy2.493,4908,690198,737Aug 20 05:38 PM
TXMDFinizio Robert GCEOAug 20Buy2.7435,00095,90018,253,964Aug 20 05:12 PM
EATBaltes Kelly C.EVP, President of Maggiano'sAug 16Buy38.0085032,30013,984Aug 20 05:08 PM
HPPGLASER JONATHAN MDirectorAug 16Buy33.271,00033,27015,957Aug 20 05:05 PM
LXRXCOATS LONNELPresident and CEOAug 19Buy1.403,0004,194127,539Aug 20 05:02 PM
LXRXCOATS LONNELPresident and CEOAug 16Buy1.3537,00049,835124,539Aug 20 05:02 PM
SKTTANGER STEVEN BCEOAug 20Buy14.4810,000144,7601,188,888Aug 20 04:50 PM
SKTREDDIN THOMASDirectorAug 19Buy14.627,000102,34042,424Aug 20 04:49 PM
RRRFERTITTA LORENZO JDirectorAug 19Buy19.5880015,66146,553,153Aug 20 04:46 PM
RRRFERTITTA LORENZO JDirectorAug 16Buy18.50130,8502,420,59446,552,353Aug 20 04:46 PM
RRRFERTITTA FRANK J IIIDirectorAug 19Buy19.5880015,66146,553,153Aug 20 04:46 PM
RRRFERTITTA FRANK J IIIDirectorAug 16Buy18.50130,8502,420,59446,552,353Aug 20 04:46 PM
OCNBRITELL JENNE KDirectorAug 19Buy1.5931,60050,24431,600Aug 20 04:41 PM
URIPASSERINI FILIPPODirectorAug 19Buy110.372,000220,7498,783Aug 20 04:35 PM
THCGLENVIEW CAPITAL MANAGEMENT, L10% OwnerAug 16Buy19.8226,456524,23419,357,891Aug 20 04:33 PM
UFILANGONE KENNETH GDirectorAug 20Buy19.983,41168,1521,220,000Aug 20 04:32 PM
UFILANGONE KENNETH GDirectorAug 19Buy19.992,77855,5321,216,589Aug 20 04:32 PM
UFILANGONE KENNETH GDirectorAug 16Buy19.7112,500246,3751,213,811Aug 20 04:32 PM
ALBNorris EricPresident, LithiumAug 20Buy64.663,090199,7903,090Aug 20 04:31 PM
CASIHe Wei-WuChief Executive OfficerAug 16Buy3.2020,00064,000827,527Aug 20 04:30 PM
EMCFFreeman Robert WDirectorAug 19Buy32.509,923322,49857,284Aug 20 04:29 PM
CWHABRAMS CAPITAL MANAGEMENT, L.P10% OwnerAug 16Buy8.0143,110345,2855,151,918Aug 20 04:21 PM
HBIOLoewald Thomas WDirectorAug 20Buy2.5320,00050,524103,200Aug 20 04:19 PM
STARISTAR INC.10% OwnerAug 20Buy29.087,500218,10026,821,393Aug 20 04:18 PM
STARISTAR INC.10% OwnerAug 19Buy29.077,500217,98826,821,393Aug 20 04:18 PM
STARISTAR INC.10% OwnerAug 16Buy28.967,500217,22326,821,393Aug 20 04:18 PM
open in screener